Location: Diancey
(47.1819°N, 4.3629°E)
Time: 12:05:24
(UTC+00:00)

Daily predictions for brighter satellites

Satellite Brightness Start Highest point End
(mag) Time Altitude Azimuth Time Altitude Azimuth Time Altitude Azimuth
ATLAS 3B R/B 4.1 20:01:59 10° NNW 20:07:45 29° NNE 20:13:40 10° E
STARLINK-1102 4.0 20:05:20 10° WNW 20:09:25 56° SW 20:13:27 10° SE
CZ-2C R/B 2.9 20:03:46 10° NNE 20:09:26 85° WNW 20:15:02 10° SSW
NOSS 2-2 (D) 3.1 20:07:17 10° SSW 20:10:48 61° SE 20:14:42 10° NE
Aureole 2 Rocket 2.3 20:08:23 10° SSW 20:11:25 70° WNW 20:14:19 10° NNE
Cosmos 1331 Rocket 4.1 20:07:35 10° S 20:12:37 57° ESE 20:17:43 10° NNE
STARLINK-1111 4.1 20:10:21 10° WNW 20:14:23 51° SW 20:18:25 10° SE
SPOT 5 4.4 20:10:26 10° ESE 20:14:48 27° ENE 20:19:13 10° N
STARLINK-52 4.3 20:15:47 10° S 20:18:15 20° SE 20:20:43 10° E
Okean 2 Rocket 4.3 20:14:33 10° NNW 20:18:44 42° W 20:22:52 10° SSW
STARLINK-1073 4.2 20:15:20 10° WNW 20:19:20 48° SW 20:23:18 10° SE
SL-4 R/B 2.7 20:16:03 10° SW 20:20:30 45° SE 20:25:07 10° ENE
NOSS 3-2 (C) 4.4 20:13:19 10° NW 20:20:36 60° NE 20:28:50 10° ESE
Cosmos 1943 Rocket 2.5 20:15:25 10° S 20:20:38 44° ESE 20:25:56 10° NE
SPOT 3 Rocket 4.3 20:17:15 10° S 20:22:15 52° W 20:27:19 10° NNW
Terra 3.5 20:20:19 10° ESE 20:23:51 21° ENE 20:27:24 10° NNE
STARLINK-1121 4.3 20:20:19 10° WNW 20:24:16 44° SW 20:28:12 10° SSE
Nadezhda 4 Rocket 4.1 20:19:56 10° S 20:25:56 61° E 20:31:57 10° NNE
SPOT 1/Viking Rocket 4.0 20:21:29 10° SE 20:26:24 47° ENE 20:31:19 10° N
NOSS 2-2 (E) 3.4 20:23:35 10° SW 20:27:09 74° NW 20:31:15 10° NE
IGS 5A 3.9 20:23:09 10° SSE 20:27:09 50° ENE 20:31:11 10° N
Cosmos 304 Rocket 4.1 20:23:01 10° SSW 20:27:47 71° WNW 20:32:36 10° NNE
STARLINK-1106 4.4 20:25:21 10° WNW 20:29:15 41° SW 20:33:05 10° SSE
Resurs 01 Rocket 2.1 20:26:13 10° S 20:30:37 60° W 20:35:03 10° NNW
USA 245 2.6 20:28:14 11° SSE 20:30:41 44° ENE 20:32:58 10° N
NOSS 3-4 (A) 4.4 20:26:09 10° SSE 20:30:49 25° ESE 20:35:41 10° ENE
NOSS 3-4 (C) 4.4 20:26:16 10° SSE 20:30:56 24° ESE 20:35:46 10° ENE
ATLAS CENTAUR R/B 3.1 20:28:46 10° SSE 20:31:26 16° ESE 20:34:00 10° ENE
Cosmos 1437 Rocket 3.6 20:29:15 10° SSW 20:32:57 52° WNW 20:36:45 10° N
SL-27 R/B 3.3 20:30:10 10° N 20:33:33 39° ENE 20:36:32 12° SE
STARLINK-1235 3.5 20:30:27 10° WNW 20:33:47 58° NNE 20:37:06 10° ESE
Okean 2 4.2 20:30:14 10° SSE 20:33:58 33° E 20:37:43 10° NNE
Cosmos 2297 4.3 20:38:25 10° SW 20:44:02 62° WNW 20:49:45 10° NNE
Cosmos 2082 Rocket 4.1 20:40:20 10° NW 20:44:49 24° WSW 20:49:15 10° SSW
STARLINK-60 2.8 20:43:29 10° SW 20:46:39 80° SSE 20:49:49 10° ENE
Cosmos 1242 Rocket 3.8 20:48:44 15° SE 20:50:57 25° E 20:54:01 10° NE
BREEZE-M DEB 2.6 20:49:43 10° SW 20:52:00 49° SSE 20:56:54 10° ENE
Cosmos 1766 3.3 20:48:04 10° N 20:52:05 77° E 20:55:36 13° SSE
Cosmos 2369 Rocket 2.3 20:46:35 10° S 20:52:07 56° ESE 20:57:38 10° NE
NOSS 2-2 (C) 4.1 20:49:20 10° WSW 20:52:50 53° NW 20:56:51 10° NNE
ATLAS 3B CENTAUR R/B 4.5 20:40:04 10° WSW 20:53:36 29° SSW 21:00:02 14° SE
Cosmos 1378 Rocket 4.1 20:49:22 10° SSW 20:53:42 59° WNW 20:58:02 10° N
ATLAS 2AS CENTAUR R/B 3.3 20:50:57 10° S 20:58:27 48° ESE 21:05:59 10° NE
NOSS 3-2 (A) 4.2 20:51:49 10° NW 20:59:19 72° SW 21:06:43 14° SSE
STARLINK-1212 3.0 20:57:06 10° WNW 21:00:13 74° NNE 21:02:33 16° ESE
STARLINK-1105 2.9 20:57:36 10° WNW 21:00:43 74° NNE 21:03:01 17° ESE
STARLINK-1247 2.9 20:58:26 10° WNW 21:01:34 75° NNE 21:03:52 17° ESE
STARLINK-1227 2.9 20:58:56 10° WNW 21:02:03 76° NNE 21:04:19 17° ESE
Cosmos 292 Rocket 4.0 20:57:53 10° S 21:02:33 51° ESE 21:07:16 10° NNE
STARLINK-1226 2.9 20:59:58 10° WNW 21:03:05 77° NNE 21:05:20 17° ESE
ERS-1 Rocket 3.0 20:59:14 14° SSE 21:03:29 72° ENE 21:08:31 10° N
STARLINK-1215 2.9 21:00:43 10° WNW 21:03:51 78° NNE 21:06:03 18° ESE
STARLINK-1229 2.8 21:01:31 10° WNW 21:04:31 78° NNE 21:06:32 19° ESE
STARLINK-1270 2.7 21:02:21 10° WNW 21:05:21 79° NNE 21:07:18 19° ESE
STARLINK-1209 2.8 21:02:20 10° WNW 21:05:27 79° SSW 21:07:22 21° SE
BREEZE-M DEB (TANK) 4.1 20:50:34 10° WNW 21:05:29 72° SW 21:09:24 16° SE
STARLINK-1217 2.9 21:02:34 10° WNW 21:05:42 80° NNE 21:07:50 19° ESE
STARLINK-1189 2.7 21:04:39 10° WNW 21:07:39 83° NNE 21:09:34 20° ESE
STARLINK-1188 2.7 21:06:02 10° WNW 21:09:05 85° NNE 21:10:59 21° ESE
Cosmos 1867 3.9 21:05:19 10° NNW 21:10:46 63° NE 21:15:01 17° SE
STARLINK-1191 2.7 21:09:16 10° WNW 21:12:22 89° NE 21:14:11 22° ESE
STARLINK-1444 1.8 21:11:19 10° WSW 21:13:18 75° NNW 21:15:19 10° ENE
STARLINK-1452 1.8 21:11:22 10° WSW 21:13:19 74° NNW 21:15:18 10° ENE
STARLINK-1221 2.7 21:10:15 10° WNW 21:13:21 89° S 21:15:08 23° ESE
STARLINK-1231 4.4 21:09:34 10° WNW 21:13:37 49° NNE 21:17:39 10° E
USA 238 DEB 4.2 21:06:36 10° NW 21:13:41 60° WSW 21:19:44 16° SSE
USA 238 4.2 21:06:42 10° NW 21:13:47 60° WSW 21:19:50 16° SSE
Cosmos 968 Rocket 3.5 21:09:00 10° NNW 21:14:09 69° ENE 21:17:48 19° SSE
STARLINK-1222 2.7 21:11:16 10° WNW 21:14:22 88° SSW 21:16:07 23° ESE
STARLINK-1436 (VISORSAT) 1.9 21:13:07 10° WSW 21:15:04 71° NNW 21:17:03 10° ENE
STARLINK-1450 1.9 21:13:12 10° WSW 21:15:09 70° NNW 21:17:09 10° ENE
STARLINK-1392 1.9 21:13:18 10° WSW 21:15:15 70° NNW 21:17:15 10° ENE
STARLINK-1398 1.9 21:13:18 10° WSW 21:15:16 70° NNW 21:17:15 10° ENE
STARLINK-1399 1.9 21:13:18 10° WSW 21:15:16 70° NNW 21:17:15 10° ENE
STARLINK-1393 1.9 21:13:18 10° WSW 21:15:16 70° NNW 21:17:16 10° ENE
STARLINK-1395 1.9 21:13:18 10° WSW 21:15:16 70° NNW 21:17:16 10° ENE
STARLINK-1394 1.9 21:13:18 10° WSW 21:15:16 70° NNW 21:17:16 10° ENE
STARLINK-1415 1.9 21:13:18 10° WSW 21:15:16 70° NNW 21:17:16 10° ENE
STARLINK-1414 1.9 21:13:19 10° WSW 21:15:16 70° NNW 21:17:16 10° ENE
STARLINK-1396 1.9 21:13:19 10° WSW 21:15:18 70° NNW 21:17:17 10° ENE
STARLINK-1397 1.9 21:13:19 10° WSW 21:15:18 70° NNW 21:17:17 10° ENE
STARLINK-1416 1.9 21:13:19 10° WSW 21:15:18 70° NNW 21:17:17 10° ENE
STARLINK-1404 1.9 21:13:19 10° WSW 21:15:18 70° NNW 21:17:17 10° ENE
STARLINK-1401 1.9 21:13:20 10° WSW 21:15:18 70° NNW 21:17:18 10° ENE
STARLINK-1419 1.9 21:13:20 10° WSW 21:15:19 70° NNW 21:17:18 10° ENE
STARLINK-1453 1.9 21:13:21 10° WSW 21:15:19 70° NNW 21:17:19 10° ENE
STARLINK-1437 1.9 21:13:21 10° WSW 21:15:19 70° NNW 21:17:19 10° ENE
STARLINK-1408 1.9 21:13:20 10° WSW 21:15:19 70° NNW 21:17:18 10° ENE
STARLINK-1417 1.9 21:13:21 10° WSW 21:15:19 70° NNW 21:17:19 10° ENE
STARLINK-1402 1.9 21:13:21 10° WSW 21:15:19 70° NNW 21:17:19 10° ENE
STARLINK-1420 1.9 21:13:22 10° WSW 21:15:20 70° NNW 21:17:20 10° ENE
STARLINK-1413 1.9 21:13:23 10° WSW 21:15:21 70° NNW 21:17:21 10° ENE
STARLINK-1458 1.9 21:13:23 10° WSW 21:15:21 70° NNW 21:17:21 10° ENE
STARLINK-1406 1.9 21:13:23 10° WSW 21:15:21 70° NNW 21:17:21 10° ENE
STARLINK-1460 1.9 21:13:23 10° WSW 21:15:21 70° NNW 21:17:21 10° ENE
STARLINK-1422 1.9 21:13:24 10° WSW 21:15:22 70° NNW 21:17:21 10° ENE
STARLINK-1440 1.9 21:13:24 10° WSW 21:15:22 70° NNW 21:17:22 10° ENE
STARLINK-1445 1.9 21:13:25 10° WSW 21:15:23 70° NNW 21:17:23 10° ENE
STARLINK-1443 1.9 21:13:26 10° WSW 21:15:24 70° NNW 21:17:24 10° ENE
STARLINK-1446 1.9 21:13:26 10° WSW 21:15:25 70° NNW 21:17:24 10° ENE
STARLINK-1454 1.9 21:13:27 10° WSW 21:15:25 70° NNW 21:17:25 10° ENE
STARLINK-1457 1.9 21:13:27 10° WSW 21:15:26 70° NNW 21:17:26 10° ENE
STARLINK-1456 1.9 21:13:27 10° WSW 21:15:26 70° NNW 21:17:25 10° ENE
STARLINK-1451 1.9 21:13:28 10° WSW 21:15:26 70° NNW 21:17:26 10° ENE
STARLINK-1447 1.9 21:13:28 10° WSW 21:15:27 70° NNW 21:17:26 10° ENE
STARLINK-1455 1.9 21:13:29 10° WSW 21:15:27 70° NNW 21:17:27 10° ENE
STARLINK-1442 1.9 21:13:29 10° WSW 21:15:27 70° NNW 21:17:27 10° ENE
STARLINK-1449 1.9 21:13:29 10° WSW 21:15:27 70° NNW 21:17:27 10° ENE
STARLINK-1448 1.9 21:13:30 10° WSW 21:15:27 70° NNW 21:17:27 10° ENE
STARLINK-1441 1.9 21:13:30 10° WSW 21:15:27 70° NNW 21:17:27 10° ENE
STARLINK-1405 1.9 21:13:31 10° WSW 21:15:28 70° NNW 21:17:29 10° ENE
STARLINK-1423 1.9 21:13:31 10° WSW 21:15:30 70° NNW 21:17:29 10° ENE
STARLINK-1421 1.9 21:13:31 10° WSW 21:15:30 70° NNW 21:17:29 10° ENE
STARLINK-1410 1.9 21:13:31 10° WSW 21:15:30 70° NNW 21:17:29 10° ENE
STARLINK-1407 1.9 21:13:32 10° WSW 21:15:30 70° NNW 21:17:29 10° ENE
STARLINK-1400 1.9 21:13:32 10° WSW 21:15:30 70° NNW 21:17:29 10° ENE
STARLINK-1439 1.9 21:13:33 10° WSW 21:15:31 70° NNW 21:17:30 10° ENE
STARLINK-1409 1.9 21:13:33 10° WSW 21:15:31 70° NNW 21:17:31 10° ENE
STARLINK-1214 2.7 21:12:26 10° WNW 21:15:31 86° SSW 21:17:14 24° ESE
STARLINK-1351 1.9 21:13:33 10° WSW 21:15:32 70° NNW 21:17:31 10° ENE
STARLINK-1370 1.9 21:13:34 10° WSW 21:15:32 70° NNW 21:17:32 10° ENE
STARLINK-1434 1.9 21:13:34 10° WSW 21:15:32 70° NNW 21:17:32 10° ENE
STARLINK-1418 1.9 21:13:34 10° WSW 21:15:32 70° NNW 21:17:32 10° ENE
STARLINK-1403 1.9 21:13:35 10° WSW 21:15:33 70° NNW 21:17:33 10° ENE
STARLINK-1433 1.9 21:13:36 10° WSW 21:15:33 70° NNW 21:17:33 10° ENE
STARLINK-1412 1.9 21:13:38 10° WSW 21:15:35 70° NNW 21:17:36 10° ENE
STARLINK-1438 1.9 21:13:38 10° WSW 21:15:35 70° NNW 21:17:36 10° ENE
STARLINK-1411 1.9 21:13:37 10° WSW 21:15:35 70° NNW 21:17:35 10° ENE
Cosmos 1092 Rocket 4.0 21:09:39 10° S 21:15:47 90° ENE 21:22:00 10° N
Landsat 7 4.4 21:11:34 11° S 21:16:02 54° W 21:20:45 10° NNW
Cosmos 1975 Rocket 3.0 21:14:15 11° S 21:18:32 89° E 21:22:57 10° N
STARLINK-29 2.8 21:15:25 10° SW 21:18:38 76° SSE 21:21:51 10° ENE
STARLINK-1232 4.4 21:14:35 10° WNW 21:18:39 51° NNE 21:22:42 10° E
STARLINK-1234 3.1 21:16:12 10° WNW 21:19:38 66° SSW 21:21:27 25° SE
Cosmos 1025 Rocket 3.9 21:17:47 20° SE 21:19:55 32° E 21:23:45 10° NNE
STARLINK-1228 3.2 21:17:05 10° WNW 21:20:37 66° SSW 21:22:31 25° SE
STARLINK-1208 4.3 21:19:32 10° WNW 21:23:37 53° NNE 21:27:33 11° E
STARLINK-1339 4.4 21:23:43 24° SE 21:24:03 24° SE 21:27:13 10° E
Cosmos 1378 4.5 21:20:43 10° SW 21:24:11 38° WNW 21:27:42 10° N
COSMOS 2455 3.3 21:21:21 14° S 21:26:00 40° ESE 21:31:34 10° NE
BREEZE-M DEB (TANK) 3.9 21:10:14 10° WSW 21:27:51 87° SSE 21:32:04 10° ENE
Cosmos 1428 Rocket 4.5 21:22:32 12° S 21:28:23 78° E 21:34:39 10° N
STARLINK-1271 4.2 21:24:32 10° WNW 21:28:38 56° NNE 21:32:21 12° E
STARLINK-1187 3.0 21:26:24 10° WNW 21:29:35 60° SSW 21:30:51 31° SE
STARLINK-1377 4.3 21:28:58 24° SSE 21:29:57 28° SE 21:33:20 10° ENE
Cosmos 1470 2.8 21:26:59 10° N 21:30:50 64° E 21:32:50 26° SSE
STARLINK-1154 4.1 21:29:31 10° WNW 21:33:37 58° NNE 21:37:07 14° E
STARLINK-1353 4.3 21:32:52 25° S 21:34:04 30° SE 21:37:32 10° ENE
Cosmos 1726 3.4 21:32:27 10° NNE 21:35:44 28° ENE 21:37:13 21° ESE
Cosmos 1340 Rocket 4.0 21:32:40 10° N 21:36:20 31° ENE 21:38:13 21° ESE
STARLINK-1375 4.2 21:35:42 27° SSE 21:36:37 30° SE 21:40:02 10° ENE
BREEZE-M DEB (TANK) 4.4 21:21:54 10° WNW 21:38:23 83° SSW 21:41:50 18° ESE
STARLINK-1197 4.0 21:34:29 10° WNW 21:38:36 61° NNE 21:41:53 15° ESE
STARLINK-1320 3.7 21:39:31 31° ESE 21:39:31 31° ESE 21:41:48 10° ENE
STARLINK-1322 3.7 21:39:50 31° ESE 21:39:50 31° ESE 21:42:06 10° ENE
STARLINK-1324 3.7 21:40:12 31° ESE 21:40:12 31° ESE 21:42:29 10° ENE
STARLINK-1294 3.7 21:40:31 31° ESE 21:40:31 31° ESE 21:42:46 10° ENE
STARLINK-1261 3.6 21:40:49 32° ESE 21:40:49 32° ESE 21:43:08 10° ENE
Cosmos 1733 4.4 21:36:53 10° NNW 21:40:24 36° W 21:43:09 15° SSW
STARLINK-1325 3.6 21:41:09 32° ESE 21:41:09 32° ESE 21:43:29 10° ENE
STARLINK-1333 3.6 21:41:30 33° ESE 21:41:30 33° ESE 21:43:50 10° ENE
STARLINK-1334 3.6 21:41:50 33° ESE 21:41:50 33° ESE 21:44:11 10° ENE
STARLINK-1326 3.6 21:42:09 33° ESE 21:42:09 33° ESE 21:44:32 10° ENE
STARLINK-1323 3.6 21:42:27 34° ESE 21:42:27 34° ESE 21:44:51 10° ENE
STARLINK-1349 3.6 21:42:47 34° ESE 21:42:47 34° ESE 21:45:11 10° ENE
STARLINK-1350 4.1 21:40:46 25° S 21:42:18 34° SE 21:45:53 10° ENE
STARLINK-1336 3.5 21:43:06 34° ESE 21:43:06 34° ESE 21:45:31 10° ENE
STARLINK-1331 3.5 21:43:26 35° ESE 21:43:26 35° ESE 21:45:53 10° ENE
Cosmos 1842 3.9 21:39:48 13° SSW 21:43:13 53° WNW 21:47:02 10° N
STARLINK-1344 3.5 21:43:46 35° ESE 21:43:46 35° ESE 21:46:12 10° ENE
STARLINK-1198 3.9 21:39:29 10° WNW 21:43:36 65° NNE 21:46:41 17° ESE
STARLINK-1343 3.5 21:44:05 35° ESE 21:44:05 35° ESE 21:46:33 10° ENE
STARLINK-1346 3.4 21:44:17 37° SE 21:44:17 37° SE 21:46:53 10° ENE
STARLINK-1328 3.5 21:44:43 36° ESE 21:44:43 36° ESE 21:47:12 10° ENE
STARLINK-1354 3.5 21:45:05 36° ESE 21:45:05 36° ESE 21:47:34 10° ENE
STARLINK-1347 3.4 21:45:23 36° ESE 21:45:23 36° ESE 21:47:54 10° ENE
STARLINK-1357 3.4 21:45:44 37° ESE 21:45:44 37° ESE 21:48:16 10° ENE
RESURS DK-1 3.6 21:45:05 23° ESE 21:45:31 23° ESE 21:48:48 10° NE
STARLINK-1335 3.4 21:46:00 37° ESE 21:46:00 37° ESE 21:48:33 10° ENE
STARLINK-1327 3.4 21:46:23 37° ESE 21:46:23 37° ESE 21:48:56 10° ENE
STARLINK-1340 3.4 21:46:43 38° ESE 21:46:43 38° ESE 21:49:17 10° ENE
STARLINK-1352 4.0 21:44:45 24° S 21:46:29 36° SE 21:50:08 10° ENE
STARLINK-1356 3.4 21:47:02 38° ESE 21:47:02 38° ESE 21:49:38 10° ENE
Cosmos 1455 Rocket 3.6 21:42:39 10° NNW 21:46:53 54° W 21:49:41 20° SSW
STARLINK-1345 3.3 21:47:21 39° ESE 21:47:21 39° ESE 21:49:58 10° ENE
STARLINK-1355 3.3 21:47:39 39° SE 21:47:39 39° SE 21:50:17 10° ENE
STARLINK-1321 3.3 21:48:00 39° ESE 21:48:00 39° ESE 21:50:37 10° ENE
STARLINK-1358 3.3 21:48:20 40° SE 21:48:20 40° SE 21:51:00 10° ENE
EXPRESS MD2 4.3 21:44:25 10° W 21:48:03 65° N 21:55:30 10° E
STARLINK-1332 3.3 21:48:38 40° SE 21:48:38 40° SE 21:51:18 10° ENE
STARLINK-1199 3.8 21:44:27 10° WNW 21:48:35 68° NNE 21:51:27 19° ESE
STARLINK-1348 3.3 21:48:58 40° SE 21:48:58 40° SE 21:51:38 10° ENE
Meteor 2-10 4.2 21:43:47 10° N 21:48:46 59° ENE 21:51:31 26° SSE
STARLINK-1330 3.3 21:49:18 41° SE 21:49:18 41° SE 21:51:59 10° ENE
STARLINK-1363 3.2 21:49:36 41° SE 21:49:36 41° SE 21:52:19 10° ENE
STARLINK-1337 3.2 21:49:57 41° SE 21:49:57 41° SE 21:52:39 10° ENE
STARLINK-1342 3.2 21:50:17 42° SE 21:50:17 42° SE 21:53:01 10° ENE
STARLINK-1364 3.2 21:50:36 42° SE 21:50:36 42° SE 21:53:21 10° ENE
Cosmos 1953 2.8 21:46:33 10° N 21:50:25 47° ENE 21:51:59 30° SE
STARLINK-1368 3.9 21:48:46 23° SSW 21:50:40 39° SE 21:54:22 10° ENE
STARLINK-1376 3.2 21:50:56 42° SE 21:50:56 42° SE 21:53:41 10° ENE
STARLINK-1360 3.2 21:51:15 43° SE 21:51:15 43° SE 21:54:02 10° ENE
Cosmos 2263 4.4 21:45:43 10° SSW 21:51:19 74° WNW 21:56:57 10° NNE
STARLINK-1361 3.2 21:51:36 43° SE 21:51:36 43° SE 21:54:22 10° ENE
USA 215 4.4 21:45:30 10° E 21:51:34 42° NNE 21:57:37 10° NW
STARLINK-1367 3.1 21:51:50 44° SE 21:51:50 44° SE 21:54:42 10° ENE
CENTAUR R/B 3.4 21:43:55 10° NW 21:51:54 63° WSW 21:57:56 22° SSE
STARLINK-1366 3.1 21:52:14 44° SE 21:52:14 44° SE 21:55:03 10° ENE
SPOT 5 3.7 21:48:42 18° S 21:52:32 52° W 21:57:48 10° NNW
S3M 4.1 21:46:24 10° N 21:52:34 67° E 21:56:24 25° SSE
STARLINK-1210 3.8 21:49:25 10° WNW 21:53:35 72° NNE 21:56:14 21° ESE
Cosmos 1503 Rocket 4.1 21:48:24 10° NNW 21:53:45 79° WSW 21:56:49 26° SSE
STARLINK-52 3.3 21:50:54 10° WSW 21:54:06 67° NNW 21:57:19 10° ENE
STARLINK-1369 3.8 21:52:47 22° SSW 21:54:52 42° SE 21:58:37 10° ENE
Cosmos 2026 Rocket 4.4 21:48:52 10° SSW 21:55:07 64° WNW 22:01:28 10° N
Cosmos 1271 Rocket 2.8 21:56:18 24° SSW 21:58:34 76° WNW 22:02:33 10° N
STARLINK-1219 3.7 21:54:26 10° WNW 21:58:35 77° NNE 22:01:02 24° ESE
STARLINK-1372 3.7 21:56:48 21° SSW 21:59:05 45° SE 22:02:52 10° ENE
ATLAS 3B R/B 2.7 21:52:33 10° NW 21:59:23 84° NE 22:04:04 23° SE
SL-4 R/B 2.8 21:55:26 10° W 22:00:12 66° NNW 22:05:02 10° ENE
Cosmos 2297 Rocket 4.0 21:56:43 10° N 22:01:11 23° NE 22:05:37 10° E
Terra 2.3 21:58:22 22° S 22:01:14 54° W 22:05:55 10° NNW
STARLINK-1378 3.6 21:59:49 23° SSW 22:01:52 47° SE 22:05:38 10° ENE
STARLINK-1211 3.6 21:59:24 10° WNW 22:03:34 81° NNE 22:05:49 26° ESE
Cosmos 1553 Rocket 4.0 21:57:22 10° N 22:03:38 78° W 22:07:36 23° S
Meteor 2-8 Rocket 4.4 21:57:54 10° N 22:04:06 83° E 22:07:46 26° SSE
SJ 16-02 4.0 22:02:54 10° NNE 22:04:14 11° NE 22:05:35 10° ENE
BREEZE-M DEB (TANK) 3.3 21:56:43 10° SW 22:04:15 35° SSE 22:07:22 10° E
Cosmos 1943 Rocket 3.8 21:59:28 10° WSW 22:04:31 34° NW 22:09:38 10° NNE
OE (NEXTSAT) 4.2 22:01:16 10° W 22:04:47 75° S 22:06:36 26° E
STARLINK-1379 3.6 22:03:11 24° SSW 22:05:12 49° SE 22:08:58 10° ENE
Aureole 3 3.7 22:03:33 10° N 22:06:19 31° ENE 22:06:42 30° E
FALCON 9 DEB 3.1 22:03:56 10° WSW 22:07:21 80° NNW 22:10:48 10° ENE
STARLINK-1329 3.5 22:06:16 23° SSW 22:08:27 52° SE 22:12:14 10° ENE
Cosmos 1174 3.4 22:06:48 26° SW 22:08:31 84° NW 22:12:21 10° NE
STARLINK-1245 3.6 22:04:23 10° WNW 22:08:33 86° NNE 22:10:36 29° ESE
Cosmos 1758 3.8 22:04:34 10° NNW 22:08:34 55° W 22:10:28 28° SSW
Cosmos 1626 4.5 22:08:17 11° E 22:08:37 11° E 22:09:48 10° ENE
ATLAS CENTAUR R/B 1.6 22:05:34 10° SW 22:09:56 70° NW 22:14:02 10° NNE
SeaSat 1 3.4 22:05:52 10° NE 22:10:06 28° ESE 22:11:04 26° SE
Cosmos 1707 2.8 22:08:17 30° SSW 22:10:07 75° W 22:14:01 10° N
STARLINK-1235 4.4 22:07:23 10° W 22:10:14 26° SW 22:10:14 26° SW
COSMOS 2487 2.4 22:09:27 10° NNW 22:12:55 74° WSW 22:13:45 48° S
STARLINK-1233 3.5 22:09:20 10° WNW 22:13:30 89° SW 22:15:21 32° ESE
STARLINK-1362 3.4 22:11:07 19° SW 22:13:43 57° SE 22:17:35 10° ENE
Cosmos 1354 Rocket 4.3 22:10:20 10° NNW 22:15:33 59° WSW 22:18:14 28° S
STARLINK-1373 3.4 22:15:16 18° SW 22:18:02 61° SSE 22:21:56 10° ENE
STARLINK-1204 3.5 22:14:19 10° WNW 22:18:29 84° SSW 22:20:08 35° SE
Cosmos 1536 Rocket 3.6 22:16:15 28° SSW 22:18:30 73° W 22:22:54 10° N
EO 1 Del DPAF 3.4 22:15:19 10° NNE 22:19:02 53° E 22:19:51 43° SE
STARLINK-1390 3.3 22:18:23 20° SW 22:20:54 63° SSE 22:24:44 10° ENE
NOSS 3-4 (A) 3.7 22:15:07 10° SW 22:21:03 70° NW 22:27:27 10° NE
NOSS 3-4 (C) 3.7 22:15:12 10° SW 22:21:09 70° NW 22:27:34 10° NE
STARLINK-1238 3.5 22:19:18 10° WNW 22:23:27 79° SSW 22:24:55 39° SE
Cosmos 1656 Rocket 4.2 22:19:58 10° SW 22:25:30 57° WNW 22:31:00 10° NNE
Meteor 1-16 Rocket 4.0 22:20:05 10° N 22:25:34 88° E 22:28:05 33° SSE
STARLINK-1365 3.3 22:22:30 12° SW 22:26:07 71° SSE 22:30:05 10° ENE
Cosmos 2266 Rocket 3.9 22:24:05 28° S 22:27:25 78° E 22:33:28 10° N
Cosmos 2084 3.4 22:26:10 31° SSW 22:28:11 68° SE 22:32:38 10° NE
STARLINK-1201 3.5 22:24:18 10° WNW 22:28:26 74° SSW 22:29:42 42° SE
Cosmos 1655 Rocket 4.1 22:25:20 23° SSW 22:29:28 77° W 22:35:47 10° N
STARLINK-1206 3.5 22:29:16 10° WNW 22:33:24 68° SW 22:34:29 46° SSE
STARLINK-1216 4.4 22:31:33 10° WNW 22:35:36 50° NNE 22:39:20 12° E
Cosmos 2369 Rocket 4.1 22:31:36 10° WSW 22:36:28 29° NW 22:41:21 10° N
STARLINK-1205 3.6 22:34:15 10° WNW 22:38:22 64° SSW 22:39:15 49° SSE
Cosmos 2227 Rocket 3.5 22:33:59 10° NNW 22:39:08 34° NE 22:43:18 15° ESE
STARLINK-1237 4.3 22:36:30 10° WNW 22:40:35 52° NNE 22:44:05 13° E
STARLINK-1338 3.2 22:37:51 16° WSW 22:40:51 86° SSE 22:44:39 10° ENE
STARLINK-1218 3.7 22:39:16 10° WNW 22:43:21 59° SW 22:44:04 50° S
Spot 4 3.8 22:42:23 38° S 22:44:16 80° WSW 22:49:09 10° NNW
Cosmos 2292 Rocket 2.9 22:44:11 56° SW 22:44:41 69° W 22:47:43 10° N
SL-14 R/B 4.4 22:44:57 27° ESE 22:45:21 28° E 22:48:39 10° NNE
STARLINK-1202 4.3 22:41:30 10° WNW 22:45:35 55° NNE 22:48:52 15° E
STARLINK-1254 3.7 22:44:14 10° WNW 22:48:18 54° SW 22:48:49 50° S
STARLINK-1203 4.2 22:44:34 10° WNW 22:48:44 57° NNE 22:52:01 16° E
Cosmos 1908 3.1 22:45:10 10° N 22:49:00 88° W 22:49:45 56° S
Cosmos 883 Rocket 4.5 22:43:11 10° NNW 22:49:19 77° W 22:52:19 32° S
Cosmos 2058 Rocket 3.8 22:45:06 10° N 22:49:23 44° ENE 22:50:50 33° ESE
ATLAS 2AS CENTAUR R/B 3.7 22:41:38 10° WSW 22:49:28 56° NW 22:57:14 10° NE
Cosmos 2098 Rocket 4.4 22:45:55 29° S 22:50:08 81° E 22:57:32 10° N
STARLINK-1371 3.4 22:46:30 11° WSW 22:50:17 83° NNW 22:54:09 10° ENE
Cosmos 1606 Rocket 3.4 22:46:00 10° N 22:50:22 85° E 22:51:37 46° SSE
STARLINK-1231 3.8 22:49:13 10° WNW 22:53:14 50° SW 22:53:35 49° SSW
Meteor 2-5 Rocket 3.8 22:51:49 36° SSE 22:54:03 63° E 22:59:39 10° NNE
STARLINK-1341 3.4 22:50:27 10° WSW 22:54:18 79° NNW 22:58:10 10° ENE
ALOS 2 2.7 22:53:44 42° SE 22:55:07 68° ENE 22:59:30 10° N
STARLINK-1246 4.1 22:51:28 10° WNW 22:55:35 60° NNE 22:58:27 19° E
KORONAS-FOTON 3.7 22:56:12 53° SSW 22:57:02 81° W 23:00:55 10° N
STARLINK-1374 3.5 22:54:23 10° WSW 22:58:13 76° NNW 23:02:04 10° ENE
STARLINK-1232 3.9 22:54:16 10° WNW 22:58:15 47° SW 22:58:25 46° SSW
CZ-4C R/B 3.2 22:59:36 24° ESE 23:00:04 24° ESE 23:04:32 10° ENE
STARLINK-1224 4.0 22:56:27 10° WNW 23:00:35 64° NNE 23:03:14 21° E
STARLINK-1339 3.6 22:58:22 10° WSW 23:02:12 72° NNW 23:06:02 10° ENE
STARLINK-1208 4.0 22:59:14 10° WNW 23:03:09 43° SW 23:03:09 43° SW
Cosmos 1300 3.3 23:00:39 10° N 23:04:19 44° ENE 23:05:03 39° ESE
STARLINK-1225 3.9 23:01:26 10° WNW 23:05:34 67° NNE 23:08:01 23° ESE
STARLINK-1271 4.2 23:04:16 10° WNW 23:07:58 39° SW 23:07:58 39° SW
STARLINK-1377 3.8 23:04:42 10° WSW 23:08:37 67° NNW 23:12:33 10° ENE
Helios 1B rocket 4.4 23:06:05 10° NE 23:08:44 16° E 23:09:18 16° ESE
Nimbus 7 Rocket 4.4 23:03:49 10° NNE 23:09:56 85° ESE 23:12:50 33° SSW
STARLINK-1230 3.8 23:06:24 10° WNW 23:10:32 71° NNE 23:12:46 26° ESE
Cosmos 1726 3.9 23:07:53 10° NW 23:10:47 22° W 23:11:43 20° WSW
COSMOS 2455 3.9 23:06:09 10° WSW 23:11:54 44° NW 23:17:41 10° NNE
Cosmos 1674 3.3 23:11:24 38° WSW 23:12:21 48° WNW 23:16:04 10° N
Cosmos 1340 Rocket 4.5 23:09:21 10° NW 23:12:39 24° W 23:13:48 21° WSW
STARLINK-1353 3.9 23:08:52 10° WSW 23:12:46 64° NNW 23:16:42 10° ENE
STARLINK-1154 4.4 23:09:16 10° WNW 23:12:44 36° SW 23:12:44 36° SW
STARLINK-1320 4.0 23:11:40 10° W 23:14:41 44° NNW 23:17:42 10° NE
Cosmos 1777 Rocket 4.5 23:09:51 10° NNW 23:14:53 48° WSW 23:16:35 35° SSW
STARLINK-1375 3.9 23:11:09 10° WSW 23:14:59 62° NNW 23:18:49 10° ENE
STARLINK-1322 4.0 23:11:59 10° W 23:14:59 44° NNW 23:18:01 10° NE
STARLINK-1324 4.0 23:12:22 10° W 23:15:22 44° NNW 23:18:23 10° NE
STARLINK-1243 3.7 23:11:24 10° WNW 23:15:33 75° NNE 23:17:35 29° ESE
STARLINK-1294 4.0 23:12:40 10° W 23:15:39 44° NNW 23:18:40 10° NE
STARLINK-1261 4.0 23:13:01 10° W 23:16:02 43° NNW 23:19:03 10° NE
STARLINK-1325 4.0 23:13:22 10° W 23:16:22 43° NNW 23:19:23 10° NE
STARLINK-1333 4.1 23:13:44 10° W 23:16:44 43° NNW 23:19:45 10° NE
STARLINK-1334 4.1 23:14:04 10° W 23:17:04 43° NNW 23:20:04 10° NE
STARLINK-1326 4.1 23:14:24 10° W 23:17:24 43° NNW 23:20:25 10° NE
Cosmos 2228 3.4 23:13:18 10° NNW 23:17:25 50° W 23:18:24 40° SW
STARLINK-1323 4.1 23:14:44 10° W 23:17:44 43° NNW 23:20:45 10° NE
Meteor 2-14 Rocket 4.4 23:15:15 36° S 23:17:55 74° E 23:24:04 10° NNE
STARLINK-1349 4.1 23:15:04 10° W 23:18:04 42° NNW 23:21:04 10° NE
Thor Agena Rocket 4.5 23:13:07 10° N 23:18:07 44° WNW 23:21:25 20° SW
STARLINK-1336 4.1 23:15:24 10° W 23:18:24 42° NNW 23:21:25 10° NE
STARLINK-1331 4.1 23:15:46 10° W 23:18:45 42° NNW 23:21:46 10° NE
STARLINK-1344 4.1 23:16:05 10° W 23:19:05 42° NNW 23:22:05 10° NE
Cosmos 921 Rocket 2.9 23:18:04 48° SSW 23:19:14 85° WNW 23:23:39 10° NNE
STARLINK-1343 4.1 23:16:26 10° W 23:19:25 42° NNW 23:22:26 10° NE
STARLINK-1346 4.1 23:16:44 10° W 23:19:45 42° NNW 23:22:47 10° NE
STARLINK-1328 4.1 23:17:05 10° W 23:20:05 42° NNW 23:23:05 10° NE
STARLINK-1354 4.1 23:17:28 10° W 23:20:27 41° NNW 23:23:26 10° NE
STARLINK-1236 3.6 23:16:22 10° WNW 23:20:32 79° NNE 23:22:21 32° ESE
STARLINK-1347 4.2 23:17:47 10° W 23:20:46 41° NNW 23:23:45 10° NE
STARLINK-1350 4.0 23:17:13 10° WSW 23:21:06 58° NNW 23:25:00 10° ENE
STARLINK-1357 4.2 23:18:09 10° W 23:21:08 41° NNW 23:24:08 10° NE
Cosmos 220 Rocket 4.0 23:20:03 47° SSW 23:21:19 88° WNW 23:25:48 10° NNE
STARLINK-1335 4.2 23:18:25 10° W 23:21:25 41° NNW 23:24:24 10° NE
Cosmos 1437 3.2 23:22:12 48° ENE 23:22:12 48° ENE 23:24:43 10° NNE
STARLINK-1327 4.2 23:18:50 10° W 23:21:49 41° NNW 23:24:48 10° NE
STARLINK-1340 4.2 23:19:11 10° W 23:22:10 41° NNW 23:25:09 10° NE
STARLINK-1356 4.2 23:19:31 10° W 23:22:30 40° NNW 23:25:29 10° NE
STARLINK-1345 4.2 23:19:51 10° W 23:22:50 40° NNW 23:25:49 10° NE
Timation 2 Rocket 4.3 23:17:05 10° NW 23:23:04 50° WSW 23:25:18 34° SSW
STARLINK-1355 4.2 23:20:11 10° W 23:23:10 40° NNW 23:26:09 10° NE
RESURS DK-1 3.6 23:20:56 20° WSW 23:23:20 39° NW 23:27:15 10° NNE
STARLINK-1321 4.2 23:20:31 10° W 23:23:29 40° NNW 23:26:28 10° NE
STARLINK-1358 4.2 23:20:53 10° W 23:23:52 40° NNW 23:26:51 10° NE
STARLINK-1332 4.2 23:21:11 10° W 23:24:10 40° NNW 23:27:09 10° NE
STARLINK-1348 4.2 23:21:32 10° W 23:24:30 40° NNW 23:27:29 10° NE
Lacrosse 4 Rocket 2.7 23:20:34 10° NNW 23:24:36 37° NE 23:26:58 20° ESE
STARLINK-1330 4.2 23:21:53 10° W 23:24:50 40° NNW 23:27:49 10° NE
STARLINK-1363 4.3 23:22:12 10° W 23:25:10 39° NNW 23:28:09 10° NE
STARLINK-1352 4.1 23:21:27 10° W 23:25:20 56° NNW 23:29:14 10° ENE
STARLINK-1337 4.3 23:22:34 10° W 23:25:31 39° NNW 23:28:30 10° NE
STARLINK-1342 4.3 23:22:55 10° W 23:25:53 39° NNW 23:28:51 10° NE
STARLINK-1364 4.3 23:23:15 10° W 23:26:13 39° NNW 23:29:12 10° NE
STARLINK-1376 4.3 23:23:36 10° W 23:26:33 39° NNW 23:29:32 10° NE
STARLINK-1360 4.3 23:23:56 10° W 23:26:54 39° NNW 23:29:52 10° NE
Cosmos 1980 Rocket 4.0 23:25:34 15° ESE 23:27:05 16° E 23:30:25 10° ENE
BREEZE-M R/B 3.6 23:18:29 10° WSW 23:27:10 75° SSE 23:31:13 10° ENE
Okean 1-7 Rocket 3.5 23:25:56 48° SSW 23:27:11 87° WNW 23:31:45 10° N
STARLINK-1361 4.3 23:24:17 10° W 23:27:14 39° NNW 23:30:12 10° NE
STARLINK-1367 4.3 23:24:35 10° W 23:27:33 39° NNW 23:30:33 10° NE
STARLINK-1366 4.3 23:24:58 10° W 23:27:55 38° NNW 23:30:53 10° NE
STARLINK-1368 4.2 23:25:41 10° W 23:29:34 54° NNW 23:33:27 10° ENE
STARLINK-1269 3.5 23:26:20 10° WNW 23:30:30 89° NE 23:31:55 40° ESE
STARLINK-1369 4.3 23:29:57 10° W 23:33:49 52° NNW 23:37:41 10° ENE
Cosmos 1726 Rocket 4.2 23:29:50 10° NNW 23:33:55 42° W 23:34:55 36° SW
USA 215 3.4 23:27:34 10° ESE 23:34:07 77° NNE 23:40:41 10° NW
STARLINK-1200 3.5 23:31:18 10° WNW 23:35:28 86° SSW 23:36:41 45° SE
Cosmos 1892 Rocket 3.9 23:34:23 40° SW 23:35:39 58° WNW 23:39:59 10° N
SL-4 R/B 3.6 23:37:22 13° NW 23:37:22 13° NW 23:37:47 10° NW
STARLINK-1372 4.4 23:34:13 10° W 23:38:04 50° NNW 23:41:56 10° ENE
Meteor 1-24 Rocket 3.7 23:36:45 37° SSW 23:38:56 76° WNW 23:44:31 10° N
Helios 1A 2.9 23:38:21 55° S 23:39:13 77° WSW 23:43:25 10° NNW
ATLAS 5 CENTAUR R/B 3.5 23:37:37 10° W 23:40:01 19° NW 23:41:42 10° N
SL-4 R/B 3.3 23:35:43 10° WNW 23:40:26 49° N 23:45:07 10° E
STARLINK-1192 3.4 23:36:17 10° WNW 23:40:27 81° SSW 23:41:28 50° SE
Cosmos 1455 3.9 23:37:21 10° NNE 23:40:27 24° ENE 23:41:41 20° ESE
STARLINK-1378 4.4 23:36:47 10° W 23:40:34 48° NNW 23:44:22 10° ENE
Cosmos 1626 2.4 23:42:49 50° WSW 23:43:21 56° W 23:47:02 10° N
SJ 16-02 1.4 23:39:13 10° NNW 23:43:40 74° ENE 23:44:59 45° SE
STARLINK-1379 4.5 23:40:02 10° W 23:43:47 46° NNW 23:47:32 10° ENE
STARLINK-1244 3.4 23:41:15 10° WNW 23:45:24 75° SSW 23:46:13 55° SE
Cosmos 2297 Rocket 2.1 23:40:11 10° NNW 23:45:51 76° WSW 23:48:02 39° S
SeaSat 1 3.2 23:43:02 10° NNE 23:47:47 49° NW 23:50:50 21° WSW
Cosmos 2219 3.3 23:42:32 10° NNW 23:48:06 60° WSW 23:50:00 39° S
ATLAS 3B R/B 4.0 23:44:13 10° WNW 23:49:23 23° WSW 23:51:18 21° SW
ATLAS CENTAUR R/B 4.3 23:47:04 10° WNW 23:49:30 15° NNW 23:51:52 10° N
STARLINK-1138 3.5 23:46:14 10° WNW 23:50:22 70° SSW 23:51:00 58° SSE
Cosmos 1656 3.6 23:48:16 39° SSW 23:50:27 78° ESE 23:56:04 10° NNE
Cosmos 468 Rocket 4.0 23:52:35 42° SSE 23:54:08 63° ESE 23:59:13 10° NNE
STARLINK-1143 3.5 23:51:14 10° WNW 23:55:21 65° SSW 23:55:48 60° S
